Theta_e
283 283 284 283 282 283 282 282 281 282 281 280 281 280 280 281 280 279 280 280 280 279 279 279 279 279 280 279 279 280 279 278 278 277 277 277 277 276 277 277 277 277
283 285 285 284 284 283 281 281 281 282 281 280 280 280 280 279 280 279 280 280 279 279 278 279 279 279 278 278 278 278 278 278 277 279 277 277 277 276 277 277 277 277
281 282 282 282 282 281 281 280 281 281 280 280 279 279 280 280 279 279 279 279 279 279 279 279 278 278 278 278 278 278 277 277 277 277 278 277 277 277 277 277 277 277
280 281 281 281 281 281 281 281 280 280 279 280 279 280 279 280 278 278 279 280 278 278 278 278 278 278 277 277 278 277 277 277 277 277 277 277 277 277 277 277 278 277
280 280 280 281 280 281 280 280 280 279 279 279 279 279 279 278 278 278 278 278 278 277 278 277 277 277 277 277 277 277 278 277 277 277 277 276 277 277 278 277 276 276
280 280 280 280 280 280 280 280 279 279 279 279 279 279 278 278 278 278 278 277 277 277 277 276 276 277 276 276 276 276 276 277 276 276 276 276 276 277 277 277 276 276
280 280 280 280 280 280 280 279 279 279 278 279 278 278 278 278 278 277 277 277 277 277 276 276 276 276 276 276 276 276 276 276 276 276 275 275 276 276 276 276 276 275
279 279 280 280 280 279 279 279 278 278 278 278 278 278 277 277 277 277 276 276 277 276 276 276 276 276 275 275 275 275 275 276 276 275 275 275 275 275 276 277 276 275
279 279 279 279 279 279 279 278 278 278 278 278 278 277 277 277 277 277 276 276 276 276 275 275 275 275 275 275 275 275 275 275 276 275 275 275 275 276 276 276 275 276
279 279 279 279 279 278 278 278 278 277 277 277 277 277 277 277 277 276 276 275 275 275 275 275 275 275 275 275 275 275 275 275 275 275 275 275 275 276 276 276 276 275
278 279 279 278 278 278 277 277 277 277 277 277 277 277 276 276 276 276 275 275 276 275 275 274 274 274 275 274 274 274 275 275 275 275 276 276 276 276 278 276 276 275
278 278 278 278 277 277 277 277 277 277 277 277 276 276 276 276 275 275 276 275 274 275 274 274 274 274 274 274 274 274 275 276 276 276 276 276 276 276 276 276 276 275
278 278 278 277 277 277 276 276 276 276 276 276 276 276 275 275 275 275 275 275 275 274 274 274 274 274 273 273 274 274 275 276 277 277 276 276 276 276 276 276 275 275
278 277 277 277 277 276 276 276 276 276 275 275 275 275 275 275 275 275 274 274 274 274 274 274 273 273 273 273 274 275 276 277 277 277 276 276 276 276 276 276 275 275
277 277 277 277 276 276 276 276 276 275 275 274 274 275 275 274 275 274 274 274 274 274 274 274 274 274 274 274 275 277 277 277 277 276 276 276 275 275 275 275 275 275
277 277 276 276 276 276 276 276 275 275 275 274 274 274 274 274 273 274 273 273 274 274 274 274 274 274 276 280 282 280 278 277 277 276 276 275 275 274 274 274 274 274
276 276 276 276 276 276 275 275 275 275 274 275 275 274 274 273 273 273 273 273 273 273 274 275 275 275 279 282 282 283 281 278 277 276 275 275 274 274 273 274 274 274
276 276 276 276 275 275 275 275 274 274 274 274 274 274 274 273 273 273 273 273 274 274 275 276 276 278 280 281 282 283 283 280 277 276 275 275 274 274 274 274 273 273
276 276 276 275 275 275 274 274 274 274 274 274 274 274 274 274 273 273 273 274 275 275 275 276 275 278 280 282 282 283 283 281 277 275 275 274 274 274 274 273 273 273
276 275 275 275 275 274 274 273 273 273 274 273 274 273 273 273 273 273 274 275 276 275 275 275 275 277 280 282 282 282 282 282 276 275 275 274 274 274 274 273 273 273
275 275 275 274 274 274 273 273 273 273 274 274 273 274 273 273 274 274 275 276 276 276 275 275 275 279 280 281 281 282 282 281 276 275 275 274 274 274 274 274 273 273
275 274 274 274 273 273 273 273 273 273 273 273 272 273 273 273 273 275 276 276 276 276 275 274 275 279 280 280 281 281 281 277 275 275 274 274 274 274 274 274 274 273
275 275 274 274 273 273 272 272 273 273 273 272 272 274 274 274 275 275 276 276 275 275 274 274 274 276 279 279 280 281 279 276 275 274 274 273 273 273 273 273 273 273
275 275 274 274 273 273 273 272 272 272 272 272 273 273 273 274 275 275 275 275 274 274 275 274 274 276 278 279 279 280 279 276 275 274 273 273 273 273 273 273 273 275
275 275 275 274 273 273 272 272 272 273 273 272 272 273 274 275 275 275 275 275 274 274 275 274 274 274 277 278 279 279 278 275 275 273 273 272 272 272 273 273 273 274
275 275 274 274 274 272 272 271 271 271 272 272 273 273 274 275 275 274 273 273 274 274 274 274 273 273 274 277 278 278 279 276 275 273 272 272 272 272 272 272 273 272
Wind_Speed
3 3 4 5 4 3 5 5 3 5 3 3 5 1 2 1 2 3 3 3 3 3 3 2 1 1 1 0 0 0 0 1 1 2 2 2 3 3 4 4 3 4
4 4 4 5 5 4 3 4 4 5 4 3 3 3 1 2 2 3 3 4 4 4 3 3 2 2 1 1 0 0 0 0 2 1 1 2 3 3 4 4 4 4
4 4 5 5 6 5 5 4 4 4 4 3 3 3 3 2 3 3 3 3 4 4 4 3 3 3 2 2 1 1 1 1 3 1 1 3 3 3 4 3 3 4
3 3 5 5 5 6 4 6 4 4 3 5 3 2 3 2 3 3 4 4 4 4 3 4 4 3 3 2 2 2 1 1 1 1 2 2 2 3 4 3 3 3
4 4 4 5 4 5 4 6 5 4 4 3 3 2 3 3 3 4 4 4 4 4 4 4 3 4 3 3 3 3 2 2 2 1 2 4 4 2 4 3 4 5
3 3 4 5 4 5 6 5 4 4 4 4 3 2 3 3 4 4 4 4 3 4 4 3 4 3 3 3 3 3 3 5 3 3 3 4 4 4 3 4 4 5
4 4 4 4 5 5 6 4 4 3 3 3 3 3 3 4 4 4 4 3 4 4 4 4 4 4 4 3 4 4 4 3 4 3 3 4 3 5 4 3 4 4
4 3 4 4 6 5 5 4 4 4 3 3 5 2 3 4 4 3 3 4 4 4 4 4 4 3 3 3 3 3 3 2 3 3 3 4 3 4 5 4 4 5
3 4 4 5 6 4 5 4 3 3 3 4 4 4 3 4 4 4 4 4 4 4 3 3 3 3 2 3 3 3 3 3 2 2 3 4 4 5 5 5 5 5
4 4 5 5 6 4 5 4 3 3 3 4 4 3 5 3 4 4 4 4 3 3 3 2 3 3 3 3 3 3 4 4 4 4 3 4 4 5 5 5 5 6
4 4 5 5 5 4 4 4 4 4 3 4 4 5 3 3 3 3 3 3 3 3 3 3 3 3 3 3 3 2 2 3 3 3 4 4 4 5 5 5 5 6
4 4 5 6 5 4 4 4 4 4 4 4 4 4 3 3 3 2 2 2 2 2 2 2 2 2 2 3 4 4 4 4 4 4 4 4 5 5 5 5 5 7
5 5 6 5 5 5 4 4 4 4 4 4 3 3 3 2 1 2 1 1 1 1 2 2 2 2 2 3 4 4 4 4 5 5 5 5 5 6 5 6 6 6
5 4 5 5 4 4 4 4 4 4 4 3 3 3 2 1 1 1 2 1 1 1 2 2 2 3 3 3 4 4 4 4 4 5 5 5 5 5 6 6 7 7
5 4 4 4 5 5 5 4 4 3 3 3 2 2 1 1 1 1 1 1 0 1 1 2 2 3 3 3 4 5 4 4 5 5 6 6 6 6 6 7 7 7
5 4 5 4 5 5 5 4 4 3 3 2 2 1 1 1 1 2 2 3 4 4 3 2 2 2 4 9 8 5 4 4 5 5 5 5 6 6 6 6 7 7
6 5 5 5 5 5 4 4 4 3 3 2 1 1 1 1 1 3 3 3 3 4 5 5 4 3 8 11 12 13 7 4 5 5 4 5 5 6 8 9 8 7
6 6 6 5 5 5 4 4 3 3 2 1 1 2 1 1 2 2 2 2 3 3 5 5 5 6 11 12 13 13 12 7 4 4 4 4 6 7 8 8 9 8
6 7 6 6 5 5 4 3 3 3 2 1 2 1 1 3 2 2 2 1 1 3 5 6 6 8 12 13 13 14 15 12 4 4 5 6 7 8 8 8 8 9
7 7 6 6 5 5 4 4 3 2 1 0 0 1 2 2 3 2 2 2 2 4 5 5 6 7 12 14 14 15 16 13 4 5 6 6 7 8 8 9 9 9
7 6 7 5 5 5 4 4 3 1 1 0 0 1 1 2 3 3 3 3 4 3 4 6 6 11 13 15 15 16 17 13 6 6 6 7 7 7 8 8 9 9
8 7 6 5 5 4 4 4 2 1 1 0 0 0 1 1 2 2 3 4 4 4 5 6 7 13 13 14 16 16 18 8 6 7 7 8 8 7 8 8 8 9
7 8 7 6 5 5 4 3 2 1 0 1 1 0 1 1 1 2 3 4 5 5 5 6 7 9 13 15 16 18 13 8 8 8 8 8 9 8 8 9 8 8
7 8 8 6 5 5 4 3 2 1 1 1 0 1 2 2 2 3 4 4 5 6 5 6 7 8 13 15 16 18 16 10 8 8 9 9 9 9 8 8 10 13
7 7 7 7 5 5 4 3 3 2 1 1 1 1 3 3 3 3 5 5 4 6 7 7 7 8 12 15 17 17 14 9 9 8 10 10 10 10 9 8 7 7
7 7 6 6 6 4 4 3 3 2 1 1 1 2 3 3 4 4 5 6 5 6 6 6 6 7 8 15 17 18 18 12 8 9 11 12 11 10 11 9 7 8
Wind_Direction
123 128 126 112 117 125 132 121 120 112 112 108 97 86 68 340 8 51 56 65 68 70 56 54 61 55 62 89 158 171 195 243 259 259 241 242 255 249 269 269 264 244
94 107 109 108 100 95 95 115 127 119 116 104 106 109 62 74 42 67 70 74 69 63 62 64 59 71 74 83 112 136 340 301 309 252 259 262 262 255 261 266 264 269
101 105 117 123 124 116 113 105 108 110 110 115 108 91 81 81 78 66 72 82 76 65 59 60 63 55 62 67 92 74 13 353 328 309 293 282 283 266 270 266 272 268
91 112 120 118 119 123 124 109 96 101 106 91 88 85 97 84 85 76 69 69 74 65 59 57 57 53 49 52 63 46 5 301 264 283 303 304 289 283 290 280 277 283
124 114 112 112 114 115 116 109 114 114 105 117 100 91 93 87 79 73 72 64 67 65 59 55 51 48 42 43 49 47 24 10 349 347 339 330 318 317 307 314 308 302
90 108 113 117 122 123 112 113 124 119 123 107 110 95 90 90 82 79 73 74 67 73 66 62 57 49 47 41 43 46 27 17 3 11 360 338 320 316 303 307 306 304
127 121 113 113 108 107 110 117 120 119 116 129 112 78 93 82 79 76 72 80 73 60 58 49 44 36 29 34 35 19 9 6 354 6 348 323 316 312 313 303 297 293
126 118 118 112 108 110 111 118 117 110 124 101 93 81 83 84 80 75 68 65 62 51 49 44 41 38 24 34 33 14 355 355 348 343 335 319 322 313 311 304 297 295
131 125 123 117 113 116 115 117 114 103 99 104 99 91 75 74 74 68 60 62 62 50 44 43 28 20 9 20 15 8 351 339 335 325 317 318 321 313 308 310 311 306
133 136 123 124 119 126 123 119 111 99 102 97 95 83 72 57 60 63 64 62 65 46 39 33 22 10 359 4 352 349 340 328 326 329 323 313 305 302 304 306 303 308
146 143 132 128 128 132 125 115 109 107 90 87 84 71 62 62 48 50 70 66 59 50 22 17 5 354 351 341 336 325 305 300 306 310 312 307 301 300 302 305 304 302
156 146 142 140 139 132 126 117 109 95 89 68 81 88 70 64 67 40 64 51 47 26 25 350 337 337 325 316 321 323 323 317 309 305 303 305 304 303 300 296 298 297
165 160 151 146 140 133 124 108 97 92 84 81 73 90 86 67 43 54 17 54 12 11 1 338 324 318 311 313 317 320 312 313 311 307 307 304 299 295 293 293 293 292
172 162 149 143 133 123 114 106 98 87 87 90 93 85 87 86 64 44 347 360 335 353 318 315 309 322 324 321 314 303 303 296 293 295 294 290 286 286 285 289 290 292
164 155 143 135 130 119 110 102 97 98 94 85 81 77 62 46 20 69 51 27 341 307 319 303 305 310 303 303 296 295 282 279 282 284 285 285 283 280 280 281 284 283
163 154 149 140 127 119 116 112 106 105 102 94 88 76 62 10 16 17 29 14 358 351 354 350 326 304 293 303 313 304 289 280 279 273 276 277 281 284 284 278 277 278
158 160 150 137 131 120 118 114 116 114 111 106 96 90 53 3 35 27 10 0 359 345 336 335 325 308 310 320 320 322 321 299 290 288 280 283 285 290 294 295 289 280
164 157 145 139 129 127 125 125 120 116 111 109 92 37 8 16 38 10 348 346 344 337 327 318 310 311 316 315 318 321 321 314 298 296 294 290 291 291 291 293 295 293
164 157 147 141 138 133 131 126 123 115 100 75 38 352 359 21 353 352 343 324 323 321 317 312 306 307 312 314 318 321 323 324 303 299 303 295 294 293 292 293 294 296
163 154 147 143 138 133 130 127 122 125 150 198 21 14 22 351 348 340 322 329 319 294 283 295 295 292 311 316 320 323 324 328 315 312 299 292 290 291 291 292 293 295
160 151 142 142 141 137 130 128 129 124 102 77 89 357 339 331 322 331 317 307 308 276 283 298 290 305 316 319 322 325 325 330 315 305 298 291 289 286 288 290 293 293
154 146 142 143 144 138 133 135 139 143 128 73 72 300 266 248 274 264 292 304 306 302 304 297 298 308 315 318 322 324 327 323 313 307 302 296 293 292 290 290 290 292
153 146 148 150 149 142 142 149 139 103 342 150 58 287 293 276 269 285 285 288 290 293 290 292 294 304 313 318 323 325 327 318 314 307 297 295 293 292 291 291 288 287
154 151 151 153 150 153 161 168 165 181 211 188 144 313 307 288 293 284 287 275 280 286 291 296 297 301 311 317 322 324 324 318 309 304 299 297 295 292 289 287 287 286
155 152 151 151 155 164 161 163 176 176 188 161 190 209 255 273 277 272 282 286 281 289 293 288 291 304 311 316 318 322 321 312 310 303 301 299 300 299 294 287 285 286
153 149 149 151 155 155 158 169 166 140 164 162 218 212 251 271 269 260 274 283 292 294 297 299 292 297 305 312 316 316 316 313 307 307 303 303 302 299 303 299 295 292